This is the latest recevied weather packets stored in our database for station/object KK4XZ. If no packets are shown the sender has not sent any weather packets the latest 10 day(s).
| Time | Temp. | Humidity | Pressure | Rain* | Wind** | Luminosity | Snow |
|---|---|---|---|---|---|---|---|
| 1777844717 | 17.78° C | 51% | 1016.9 hPa | 0 mm | - | - | - |
| 1777844132 | 18.33° C | 49% | 1016.8 hPa | 0 mm | - | - | - |
| 1777843527 | 19.44° C | 45% | 1016.8 hPa | 0 mm | - | - | - |
| 1777842922 | 20° C | 39% | 1016.7 hPa | 0 mm | - | - | - |
| 1777842317 | 20° C | 37% | 1016.6 hPa | 0 mm | - | - | - |
| 1777841733 | 20.56° C | 36% | 1016.6 hPa | 0 mm | - | - | - |
| 1777841128 | 20.56° C | 38% | 1016.5 hPa | 0 mm | - | - | - |
| 1777840522 | 20.56° C | 37% | 1016.6 hPa | 0 mm | - | - | - |
| 1777839918 | 20.56° C | 36% | 1016.8 hPa | 0 mm | - | - | - |
| 1777839333 | 21.11° C | 36% | 1017.1 hPa | 0 mm | - | - | - |
| 1777838728 | 21.11° C | 36% | 1017.3 hPa | 0 mm | - | - | - |
| 1777838123 | 20.56° C | 36% | 1017.3 hPa | 0 mm | - | - | - |
| 1777837519 | 20.56° C | 37% | 1017.4 hPa | 0 mm | - | - | - |
| 1777836934 | 21.11° C | 36% | 1017.7 hPa | 0 mm | - | - | - |
| 1777836329 | 21.11° C | 37% | 1017.7 hPa | 0 mm | - | - | - |
| 1777835724 | 20.56° C | 38% | 1017.8 hPa | 0 mm | - | - | - |
| 1777835119 | 20° C | 38% | 1017.8 hPa | 0 mm | - | - | - |
| 1777834535 | 20.56° C | 38% | 1018 hPa | 0 mm | - | - | - |
| 1777833930 | 20° C | 37% | 1017.9 hPa | 0 mm | - | - | - |
| 1777833325 | 20.56° C | 37% | 1018.2 hPa | 0 mm | - | - | - |
| 1777832720 | 20.56° C | 37% | 1018.2 hPa | 0 mm | - | - | - |
| 1777832135 | 20° C | 37% | 1018.5 hPa | 0 mm | - | - | - |
| 1777831531 | 20° C | 39% | 1018.5 hPa | 0 mm | - | - | - |
| 1777830925 | 20° C | 38% | 1018.7 hPa | 0 mm | - | - | - |
| 1777830320 | 20° C | 38% | 1018.8 hPa | 0 mm | - | - | - |
* Rain latest hour (hover to see other rain measurements)
** Current wind speed in m/s (hover to see current wind gust speed)